Location: Esterri de Aneo
(42.6284°N, 1.1223°E)
Time: 18:16:02
(UTC+00:00)

UWE-3 - Visible Passes

Search period start: 11 April 2026 00:00
Search period end: 21 April 2026 00:00
Orbit: 543 x 612 km, 97.9° (Epoch: 11 April)

Date Brightness Start Highest point End Pass type
(mag) Time Alt. Az. Time Alt. Az. Time Alt. Az.
11 Apr ? 02:49:44 10° NNE 02:53:03 59° NNE 02:53:03 59° NNE visible
12 Apr ? 02:53:57 10° N 02:57:24 64° N 02:57:24 64° N visible
13 Apr ? 02:58:09 10° N 03:01:44 66° NNW 03:01:44 66° NNW visible
14 Apr ? 03:02:21 10° N 03:06:04 63° NW 03:06:04 63° NW visible
15 Apr ? 01:33:55 10° ENE 01:34:06 10° E 01:34:06 10° E visible
15 Apr ? 03:06:33 10° N 03:10:23 58° WNW 03:10:23 58° WNW visible
16 Apr ? 01:37:30 10° ENE 01:38:25 12° E 01:38:25 12° E visible
16 Apr ? 03:10:46 10° N 03:14:37 51° WNW 03:14:42 51° WNW visible
17 Apr ? 01:41:17 10° ENE 01:42:43 13° E 01:42:43 13° E visible
17 Apr ? 03:14:58 10° N 03:18:45 46° WNW 03:19:00 45° W visible
18 Apr ? 01:45:09 10° ENE 01:47:01 15° E 01:47:01 15° E visible
18 Apr ? 03:19:09 10° N 03:22:53 41° WNW 03:23:18 39° W visible
19 Apr ? 01:49:04 10° NE 01:51:19 16° E 01:51:19 16° E visible
19 Apr ? 03:23:21 10° N 03:27:00 37° WNW 03:27:36 34° W visible
20 Apr ? 01:53:00 10° NE 01:55:36 18° E 01:55:36 18° E visible
20 Apr ? 03:27:34 10° N 03:31:07 33° WNW 03:31:53 30° W visible
